When you browse on this site, cookies collect data to enhance your experience and personalize the content and advertising you see.
Visit our Privacy Policy to learn more. By continuing to use the site, you agree to this use of cookies and data.
  • In United Kingdom
  • List of Countries
  • For 7 days
  • Water Temperature
  • Weather Map
  • Weather Widgets
  • user-avatar
    Login

    Hourly Weather Abernethy

    Today, 29 May, Friday

    Time Temperature Precipitation Wind Pressure Humidity
    00:00 +13°C° 0 mm 1 mps 758 mmHg 91%
    01:00 +12°C° 0 mm 0 mps 758 mmHg 91%
    02:00 +12°C° 0 mm 0 mps 758 mmHg 91%
    03:00 +11°C° 0 mm 0 mps 757 mmHg 91%
    04:00 +12°C° 0 mm 0 mps 757 mmHg 90%
    05:00 +13°C° 0 mm 0 mps 757 mmHg 88%
    06:00 +14°C° 0 mm 0 mps 757 mmHg 86%
    07:00 +16°C° 0 mm 1 mps 757 mmHg 81%
    08:00 +19°C° 0 mm 1 mps 757 mmHg 75%
    09:00 +20°C° 0 mm 2 mps 757 mmHg 70%
    10:00 +21°C° 0 mm 2 mps 757 mmHg 67%
    11:00 +23°C° 0 mm 2 mps 756 mmHg 64%
    12:00 +24°C° 0 mm 2 mps 756 mmHg 62%
    13:00 +24°C° 0 mm 3 mps 756 mmHg 63%
    14:00 +24°C° 0 mm 3 mps 756 mmHg 64%
    15:00 +24°C° 0 mm 3 mps 756 mmHg 66%
    16:00 +22°C° 0 mm 3 mps 755 mmHg 70%
    17:00 +21°C° 0 mm 3 mps 755 mmHg 73%
    18:00 +20°C° 0 mm 2 mps 755 mmHg 77%
    19:00 +19°C° 0 mm 2 mps 755 mmHg 79%
    20:00 +18°C° 0 mm 1 mps 755 mmHg 81%
    21:00 +15°C° 0 mm 1 mps 755 mmHg 83%
    22:00 +15°C° 0 mm 1 mps 755 mmHg 83%
    23:00 +14°C° 0 mm 1 mps 755 mmHg 83%

    Tomorrow, 30 May, Saturday

    Time Temperature Precipitation Wind Pressure Humidity
    00:00 +12°C° 0 mm 0 mps 755 mmHg 83%
    01:00 +12°C° 0 mm 0 mps 755 mmHg 83%
    02:00 +12°C° 0 mm 0 mps 755 mmHg 83%
    03:00 +12°C° 0 mm 0 mps 755 mmHg 83%
    04:00 +13°C° 0 mm 0 mps 755 mmHg 82%
    05:00 +14°C° 0 mm 0 mps 755 mmHg 81%
    06:00 +15°C° 0 mm 0 mps 756 mmHg 80%
    07:00 +18°C° 0 mm 1 mps 756 mmHg 77%
    08:00 +19°C° 0 mm 1 mps 756 mmHg 74%
    09:00 +20°C° 0 mm 1 mps 756 mmHg 71%
    10:00 +20°C° 0 mm 2 mps 756 mmHg 71%
    11:00 +20°C° 0 mm 3 mps 756 mmHg 71%
    12:00 +20°C° 0 mm 4 mps 756 mmHg 70%
    13:00 +20°C° 0 mm 4 mps 755 mmHg 70%
    14:00 +20°C° 0 mm 5 mps 755 mmHg 69%
    15:00 +19°C° 0 mm 5 mps 755 mmHg 68%
    16:00 +17°C° 0 mm 5 mps 755 mmHg 70%
    17:00 +17°C° 0 mm 4 mps 755 mmHg 72%
    18:00 +15°C° 0 mm 4 mps 755 mmHg 73%
    19:00 +13°C° 0 mm 4 mps 755 mmHg 78%
    20:00 +11°C° 0 mm 3 mps 755 mmHg 82%
    21:00 +9°C° 0 mm 3 mps 756 mmHg 87%
    22:00 +8°C° 0 mm 2 mps 756 mmHg 88%
    23:00 +8°C° 0 mm 2 mps 756 mmHg 90%

    Day after tomorrow, 31 May, Sunday

    Time Temperature Precipitation Wind Pressure Humidity
    00:00 +7°C° 0 mm 2 mps 756 mmHg 91%
    01:00 +7°C° 0 mm 2 mps 756 mmHg 92%
    02:00 +7°C° 0 mm 2 mps 756 mmHg 92%
    03:00 +6°C° 0 mm 2 mps 756 mmHg 93%
    04:00 +7°C° 0 mm 2 mps 756 mmHg 91%
    05:00 +8°C° 0 mm 2 mps 756 mmHg 89%
    06:00 +9°C° 0 mm 2 mps 756 mmHg 87%
    07:00 +12°C° 0 mm 2 mps 756 mmHg 81%
    08:00 +12°C° 0 mm 3 mps 756 mmHg 75%
    09:00 +14°C° 0 mm 3 mps 756 mmHg 70%
    10:00 +16°C° 0 mm 3 mps 756 mmHg 67%
    11:00 +16°C° 0 mm 3 mps 756 mmHg 65%
    12:00 +17°C° 0 mm 4 mps 756 mmHg 63%
    13:00 +17°C° 0 mm 4 mps 756 mmHg 64%
    14:00 +17°C° 0 mm 4 mps 756 mmHg 66%
    15:00 +17°C° 0 mm 4 mps 756 mmHg 67%
    16:00 +17°C° 0 mm 4 mps 755 mmHg 70%
    17:00 +16°C° 0 mm 3 mps 755 mmHg 73%
    18:00 +14°C° 0 mm 3 mps 755 mmHg 75%
    19:00 +13°C° 0 mm 3 mps 755 mmHg 80%
    20:00 +12°C° 0 mm 2 mps 755 mmHg 85%
    21:00 +9°C° 0 mm 2 mps 756 mmHg 90%
    22:00 +10°C° 0 mm 1 mps 755 mmHg 91%
    23:00 +9°C° 0 mm 1 mps 755 mmHg 91%

    1 June, Monday

    Time Temperature Precipitation Wind Pressure Humidity
    00:00 +9°C° 0 mm 1 mps 755 mmHg 92%
    01:00 +9°C° 0 mm 1 mps 755 mmHg 92%
    02:00 +9°C° 0 mm 1 mps 755 mmHg 92%
    03:00 +8°C° 0 mm 0 mps 755 mmHg 92%
    04:00 +9°C° 0 mm 0 mps 754 mmHg 89%
    05:00 +10°C° 0 mm 0 mps 754 mmHg 87%
    06:00 +11°C° 0 mm 0 mps 754 mmHg 85%
    07:00 +12°C° 0 mm 0 mps 754 mmHg 80%
    08:00 +15°C° 0 mm 1 mps 754 mmHg 75%
    09:00 +18°C° 0 mm 1 mps 754 mmHg 71%
    10:00 +18°C° 0.1 mm 2 mps 754 mmHg 69%
    11:00 +19°C° 0.1 mm 2 mps 754 mmHg 66%
    12:00 +20°C° 0.1 mm 3 mps 754 mmHg 64%
    13:00 +19°C° 0.3 mm 3 mps 754 mmHg 67%
    14:00 +19°C° 0.3 mm 3 mps 753 mmHg 70%
    15:00 +19°C° 0.3 mm 3 mps 753 mmHg 73%
    16:00 +19°C° 0.4 mm 3 mps 753 mmHg 75%
    17:00 +18°C° 0.4 mm 2 mps 752 mmHg 78%
    18:00 +18°C° 0.4 mm 2 mps 752 mmHg 80%
    19:00 +17°C° 0.1 mm 2 mps 752 mmHg 83%
    20:00 +15°C° 0.1 mm 2 mps 752 mmHg 85%
    21:00 +14°C° 0.1 mm 1 mps 751 mmHg 88%
    22:00 +14°C° 0 mm 1 mps 751 mmHg 89%
    23:00 +13°C° 0 mm 1 mps 751 mmHg 90%

    2 June, Tuesday

    Time Temperature Precipitation Wind Pressure Humidity
    00:00 +13°C° 0 mm 1 mps 751 mmHg 91%
    01:00 +13°C° 0.1 mm 1 mps 750 mmHg 91%
    02:00 +13°C° 0.1 mm 1 mps 750 mmHg 92%
    03:00 +13°C° 0.1 mm 1 mps 749 mmHg 92%
    04:00 +13°C° 0.5 mm 1 mps 749 mmHg 93%
    05:00 +13°C° 0.5 mm 1 mps 749 mmHg 94%
    06:00 +13°C° 0.5 mm 1 mps 749 mmHg 95%
    07:00 +13°C° 0.8 mm 1 mps 749 mmHg 95%
    08:00 +13°C° 0.8 mm 1 mps 749 mmHg 95%
    09:00 +13°C° 0.8 mm 1 mps 749 mmHg 95%
    10:00 +13°C° 0.4 mm 1 mps 749 mmHg 94%
    11:00 +13°C° 0.4 mm 1 mps 749 mmHg 93%
    12:00 +13°C° 0.4 mm 1 mps 749 mmHg 92%
    13:00 +13°C° 0.2 mm 1 mps 748 mmHg 92%
    14:00 +13°C° 0.2 mm 1 mps 748 mmHg 92%
    15:00 +13°C° 0.2 mm 1 mps 748 mmHg 92%
    16:00 +13°C° 0.6 mm 2 mps 748 mmHg 93%
    17:00 +13°C° 0.6 mm 2 mps 748 mmHg 95%
    18:00 +11°C° 0.6 mm 3 mps 748 mmHg 96%
    19:00 +11°C° 0.6 mm 3 mps 748 mmHg 96%
    20:00 +10°C° 0.6 mm 3 mps 748 mmHg 96%
    21:00 +10°C° 0.6 mm 3 mps 748 mmHg 96%
    22:00 +10°C° 0.1 mm 3 mps 748 mmHg 96%
    23:00 +10°C° 0.1 mm 2 mps 748 mmHg 96%

    3 June, Wednesday

    Time Temperature Precipitation Wind Pressure Humidity
    00:00 +10°C° 0.1 mm 2 mps 748 mmHg 95%
    01:00 +9°C° 0 mm 2 mps 748 mmHg 95%
    02:00 +9°C° 0 mm 2 mps 748 mmHg 95%
    03:00 +8°C° 0 mm 2 mps 748 mmHg 94%
    04:00 +9°C° 0.1 mm 2 mps 749 mmHg 93%
    05:00 +9°C° 0.1 mm 2 mps 749 mmHg 92%
    06:00 +10°C° 0.1 mm 2 mps 749 mmHg 91%
    07:00 +10°C° 0.1 mm 2 mps 749 mmHg 90%
    08:00 +12°C° 0.1 mm 2 mps 749 mmHg 88%
    09:00 +12°C° 0.1 mm 2 mps 749 mmHg 87%
    10:00 +13°C° 0 mm 2 mps 749 mmHg 84%
    11:00 +12°C° 0 mm 3 mps 749 mmHg 82%
    12:00 +13°C° 0 mm 3 mps 749 mmHg 79%
    13:00 +14°C° 0 mm 3 mps 749 mmHg 77%
    14:00 +14°C° 0 mm 3 mps 749 mmHg 74%
    15:00 +15°C° 0 mm 4 mps 749 mmHg 72%
    16:00 +14°C° 0 mm 3 mps 749 mmHg 74%
    17:00 +14°C° 0 mm 3 mps 748 mmHg 76%
    18:00 +13°C° 0 mm 3 mps 748 mmHg 79%
    19:00 +12°C° 0 mm 3 mps 748 mmHg 82%
    20:00 +12°C° 0 mm 2 mps 748 mmHg 86%
    21:00 +9°C° 0 mm 2 mps 748 mmHg 89%
    22:00 +10°C° 0 mm 1 mps 748 mmHg 90%
    23:00 +9°C° 0 mm 1 mps 747 mmHg 92%
    Show more